Location: Burgberg
(50.1428°N, 11.0671°E)
Time: 13:35:44
(UTC+00:00)

STARLINK-76 - Pass Details

Date: 26 January 2020
Orbit: 528 x 531 km, 53.0° (Epoch: 28 February)

Event Time Altitude Azimuth Distance (km) Brightness Sun altitude
Exits shadow 05:07:11 41° 276° (W) 778 3.9 -17.7°
Maximum altitude 05:08:26 69° 346° (NNW) 574 3.5 -17.5°
Drops below altitude 10° 05:12:29 10° 70° (ENE) 1,787 7.2 -16.8°
Sets 05:14:43 0° 73° (ENE) 2,679 8.3 -16.5°
